COSMOS 2251 DEB, 34062

Orbit data source: Space-Track

COSMOS 2251 DEB, 34062 is space debris in LEO originally from a launch on Wed, 16 Jun 1993 UTC launched from the Plesetsk Missile And Space Complex (PKMTR). The debris from Iridium 33, an American commercial communications satellite, has been tracked extensively since its accidental collision with the defunct Russian satellite Cosmos 2251 in 2009. This event, occurring at high speed in low Earth orbit (LEO), generated thousands of pieces of space debris, significantly increasing the risk of further collisions. The Iridium 33 debris cloud has impacted space traffic management and orbital debris mitigation strategies, making it a subject of ongoing study in space situational awareness.

Loading next visibility...
Identifier
34062, 1993-036JZ
Orbit
LEO
Country
Flag of CISCIS
Related business
Manufacturer
Unknown
Mission
Spacecraft
Bus & Motor
Unknown
Mass
Unknown
Launch date (UTC)
1993-06-16 (33 years ago)
Launch vehicle
Unknown
Launch site
Plesetsk Missile And Space Complex (PKMTR)
Object type
Payload
Rocket body
Debris
Shape & HBR
Unknown shape, 0.1 m
Radar Cross Section
Medium (>0.1 m² and <1 m²)

Expand to show TLE details & history
Last TLE update: 17 hours ago

TLE from 17 hours ago
0 COSMOS 2251 DEB
1 34062U 93036JZ  26209.01805207  .00017012  00000-0  18999-2 0  9997
2 34062  74.0260  48.3559 0068226  69.9830  51.0735 14.85259801919631
Epoch: 2026-07-28T00:25Z
TLE epoch observation values (Epoch: 2026-07-28T00:25:59.698Z)
Latitude
55.02066°
Longitude
-107.84612°
Altitude
591.764 km
Speed
7.586 km/s
True Right ascension
13h 37m 23s
True Declination
54° 51' 18"
Sunlit
Object was in daylight at epoch
Visualization orbit readout
Latitude
Unknown
Longitude
Unknown
Altitude
Unknown
Speed
Unknown
Apparent Right ascension
Unknown
Apparent Declination
Unknown
Sunlit
N/A
Visualization observer readout
Local Sidereal Time
06:30:20
Azimuth
Unknown
Elevation
Unknown
Doppler factor
Unknown
Orbital elements
Apogee altitude
658.021 km
Perigee altitude
562.661 km
Semi-major axis
6,988.478 km
Eccentricity
0.00682
Inclination
74.026°
RAAN
48.3559°
Arg. of periapsis
69.983°
True anomaly
51.68498°
Mean anomaly
51.0735°
Eccentric anomaly
51.37891°
Mean motion
3.71509 °/min
Orbital period
96.9 mins
BSTAR
0.0018999
Loading maneuver chart data...
Computing Atmospheric mass density...

Documentation

Showing up to 5 results
|